FDB564 OMDB-UBBB

Flight info

Callsign FDB564
Flight time 2h 28m
Altitude 37000
Route DAVMO M318 ASMUK/N0463F360 W32 ROVAD L125 ELEDI N39 PIROG N23 KUPAT
Aircraft B738/M-SDE2E3FGHIRWXY/LB1

Departure

Time 2026-05-06 08:45
Airport Dubai International Airport (OMDB)

Arrival

Time 2026-05-06 11:13
Airport Heydar Aliyev International Airport (UBBB)
Time Latitude Longitude Altitude Speed Heading
2026-05-06 08:26 25.24831 55.36365 24 ft 0 kts 211°
2026-05-06 08:38 25.24832 55.36366 24 ft 1 kts 211°
2026-05-06 08:38 25.24845 55.36374 23 ft 2 kts 211°
2026-05-06 08:39 25.24857 55.36383 23 ft 2 kts 211°
2026-05-06 08:39 25.24870 55.36391 23 ft 2 kts 211°
2026-05-06 08:39 25.24883 55.36400 23 ft 2 kts 211°
2026-05-06 08:39 25.24896 55.36409 23 ft 2 kts 218°
2026-05-06 08:40 25.24905 55.36422 23 ft 2 kts 247°
2026-05-06 08:40 25.24909 55.36438 23 ft 2 kts 271°
2026-05-06 08:40 25.24906 55.36454 23 ft 1 kts 295°
2026-05-06 08:40 25.24902 55.36460 23 ft 1 kts 303°
2026-05-06 08:41 25.24901 55.36462 23 ft 0 kts 301°
2026-05-06 08:42 25.24910 55.36449 23 ft 4 kts 315°
2026-05-06 08:42 25.24955 55.36412 23 ft 10 kts 328°
2026-05-06 08:43 25.25035 55.36362 23 ft 15 kts 328°
2026-05-06 08:43 25.25138 55.36342 22 ft 17 kts 33°
2026-05-06 08:43 25.25248 55.36424 22 ft 18 kts 54°
2026-05-06 08:43 25.25221 55.36548 22 ft 5 kts 121°
2026-05-06 08:44 25.25220 55.36549 22 ft 0 kts 121°
2026-05-06 08:44 25.25220 55.36550 22 ft 0 kts 121°
2026-05-06 08:44 25.25108 55.36750 23 ft 67 kts 121°
2026-05-06 08:44 25.24740 55.37413 28 ft 131 kts 121°
2026-05-06 08:45 25.24178 55.38433 146 ft 172 kts 121°
2026-05-06 08:45 25.23568 55.39552 820 ft 172 kts 122°
2026-05-06 08:45 25.22922 55.40691 1440 ft 178 kts 123°
2026-05-06 08:45 25.22256 55.41847 1943 ft 189 kts 122°
2026-05-06 08:46 25.21541 55.43129 2383 ft 204 kts 120°
2026-05-06 08:46 25.20775 55.44530 2840 ft 219 kts 120°
2026-05-06 08:46 25.20136 55.46100 3247 ft 236 kts 102°
2026-05-06 08:46 25.20025 55.47954 3922 ft 242 kts 90°
2026-05-06 08:47 25.20006 55.49787 4773 ft 241 kts 91°
2026-05-06 08:47 25.19964 55.51627 5530 ft 244 kts 91°
2026-05-06 08:47 25.19914 55.53490 6267 ft 247 kts 91°
2026-05-06 08:47 25.19862 55.55365 7072 ft 248 kts 91°
2026-05-06 08:48 25.19810 55.57263 7857 ft 250 kts 91°
2026-05-06 08:48 25.19772 55.59164 8631 ft 252 kts 88°
2026-05-06 08:48 25.20096 55.61044 9375 ft 255 kts 67°
2026-05-06 08:48 25.21110 55.62654 9956 ft 267 kts 45°
2026-05-06 08:49 25.22561 55.64034 10427 ft 283 kts 41°
2026-05-06 08:49 25.24128 55.65480 10881 ft 299 kts 41°
2026-05-06 08:49 25.25748 55.66997 11351 ft 315 kts 42°
2026-05-06 08:49 25.27475 55.68619 11831 ft 329 kts 42°
2026-05-06 08:50 25.29259 55.70296 12273 ft 345 kts 42°
2026-05-06 08:50 25.31115 55.72041 12716 ft 361 kts 41°
2026-05-06 08:50 25.33081 55.73864 13253 ft 371 kts 39°
2026-05-06 08:50 25.35262 55.75418 13998 ft 376 kts 27°
2026-05-06 08:51 25.37768 55.76276 14761 ft 382 kts
2026-05-06 08:51 25.40445 55.76504 15531 ft 386 kts
2026-05-06 08:51 25.43133 55.76628 16286 ft 390 kts
2026-05-06 08:51 25.45877 55.76748 17019 ft 394 kts
2026-05-06 08:52 25.48634 55.76876 17730 ft 398 kts
2026-05-06 08:52 25.51398 55.77011 18421 ft 402 kts
2026-05-06 08:52 25.54243 55.77153 19091 ft 406 kts
2026-05-06 08:52 25.57077 55.77296 19726 ft 411 kts
2026-05-06 08:53 25.59959 55.77443 20373 ft 416 kts
2026-05-06 08:53 25.62886 55.77593 21023 ft 419 kts
2026-05-06 08:53 25.65817 55.77743 21651 ft 423 kts
2026-05-06 08:53 25.68746 55.77893 22249 ft 427 kts
2026-05-06 08:54 25.71736 55.78047 22831 ft 431 kts
2026-05-06 08:54 25.74754 55.78203 23404 ft 434 kts
2026-05-06 08:54 25.77806 55.78360 23949 ft 437 kts
2026-05-06 08:54 25.80859 55.78517 24436 ft 441 kts
2026-05-06 08:55 25.83938 55.78675 24942 ft 443 kts 360°
2026-05-06 08:55 25.87032 55.78835 25392 ft 447 kts 360°
2026-05-06 08:55 25.90155 55.78996 25824 ft 451 kts 359°
2026-05-06 08:55 25.93297 55.79158 26282 ft 453 kts 359°
2026-05-06 08:56 25.96448 55.79321 26688 ft 457 kts 359°
2026-05-06 08:56 25.99620 55.79484 27113 ft 459 kts 359°
2026-05-06 08:56 26.02867 55.79652 27505 ft 463 kts 358°
2026-05-06 08:56 26.06090 55.79804 27909 ft 464 kts 356°
2026-05-06 08:57 26.09318 55.79747 28337 ft 463 kts 352°
2026-05-06 08:57 26.12552 55.79528 28732 ft 465 kts 351°
2026-05-06 08:57 26.15759 55.79265 29122 ft 467 kts 351°
2026-05-06 08:57 26.19027 55.79157 29662 ft 469 kts 356°
2026-05-06 08:58 26.22309 55.79458 30231 ft 472 kts
2026-05-06 08:58 26.25563 55.80025 30691 ft 474 kts
2026-05-06 08:58 26.28778 55.80687 31103 ft 475 kts
2026-05-06 08:58 26.32041 55.81389 31580 ft 474 kts
2026-05-06 08:59 26.35257 55.82083 31986 ft 475 kts
2026-05-06 08:59 26.38520 55.82784 32408 ft 475 kts
2026-05-06 08:59 26.41747 55.83472 32841 ft 474 kts
2026-05-06 08:59 26.45016 55.84166 33276 ft 474 kts
2026-05-06 09:00 26.48233 55.84847 33820 ft 472 kts
2026-05-06 09:00 26.51453 55.85527 34261 ft 471 kts
2026-05-06 09:00 26.54698 55.86211 34759 ft 470 kts
2026-05-06 09:00 26.57893 55.86884 35249 ft 468 kts
2026-05-06 09:01 26.61097 55.87558 35656 ft 467 kts
2026-05-06 09:01 26.64304 55.88232 36115 ft 465 kts
2026-05-06 09:01 26.67350 55.88873 36458 ft 466 kts
2026-05-06 09:01 26.70560 55.89547 36785 ft 466 kts
2026-05-06 09:02 26.73752 55.90216 36825 ft 470 kts
2026-05-06 09:02 26.80180 55.91404 36831 ft 464 kts
2026-05-06 09:03 26.86602 55.92153 36829 ft 462 kts 359°
2026-05-06 09:03 26.93019 55.92874 36830 ft 463 kts 359°
2026-05-06 09:04 26.99397 55.93624 36826 ft 463 kts 359°
2026-05-06 09:04 27.05823 55.94399 36834 ft 463 kts 359°
2026-05-06 09:05 27.12223 55.95179 36829 ft 463 kts 359°
2026-05-06 09:05 27.18638 55.95966 36839 ft 463 kts 359°
2026-05-06 09:06 27.25059 55.96757 36845 ft 463 kts 359°
2026-05-06 09:06 27.31439 55.97544 36865 ft 462 kts 359°
2026-05-06 09:07 27.37835 55.98335 36878 ft 462 kts 359°
2026-05-06 09:07 27.44246 55.99129 36888 ft 461 kts 359°
2026-05-06 09:08 27.50622 55.99919 36893 ft 461 kts 359°
2026-05-06 09:08 27.56992 56.00709 36956 ft 462 kts 359°
2026-05-06 09:09 27.63400 56.01505 37016 ft 463 kts 359°
2026-05-06 09:09 27.69798 56.02301 37078 ft 461 kts 358°
2026-05-06 09:10 27.76142 56.03094 37134 ft 460 kts 358°
2026-05-06 09:10 27.82520 56.03888 37145 ft 460 kts 358°
2026-05-06 09:11 27.88886 56.04682 37150 ft 460 kts 358°
2026-05-06 09:11 27.95211 56.05472 37157 ft 461 kts 358°
2026-05-06 09:12 28.01615 56.06273 37181 ft 460 kts 358°
2026-05-06 09:12 28.07964 56.07069 37182 ft 461 kts 358°
2026-05-06 09:13 28.14375 56.07679 37184 ft 456 kts 353°
2026-05-06 09:13 28.20531 56.06939 37187 ft 439 kts 339°
2026-05-06 09:14 28.26411 56.05252 37186 ft 435 kts 336°
2026-05-06 09:14 28.32283 56.03463 37213 ft 437 kts 336°
2026-05-06 09:15 28.38162 56.01685 37208 ft 436 kts 336°
2026-05-06 09:15 28.44031 55.99918 37211 ft 438 kts 336°
2026-05-06 09:16 28.49926 55.98144 37237 ft 437 kts 336°
2026-05-06 09:16 28.55777 55.96385 37286 ft 437 kts 336°
2026-05-06 09:17 28.61687 55.94607 37315 ft 437 kts 336°
2026-05-06 09:17 28.67559 55.92838 37337 ft 438 kts 336°
2026-05-06 09:18 28.73446 55.91066 37372 ft 437 kts 336°
2026-05-06 09:18 28.79334 55.89288 37391 ft 436 kts 336°
2026-05-06 09:19 28.85189 55.87518 37375 ft 437 kts 336°
2026-05-06 09:19 28.91092 55.85730 37394 ft 438 kts 335°
2026-05-06 09:20 28.96983 55.83943 37385 ft 438 kts 336°
2026-05-06 09:20 29.02881 55.82155 37389 ft 438 kts 335°
2026-05-06 09:21 29.08765 55.80365 37392 ft 439 kts 335°
2026-05-06 09:21 29.14742 55.78548 37407 ft 438 kts 335°
2026-05-06 09:22 29.20631 55.76755 37392 ft 437 kts 335°
2026-05-06 09:22 29.26486 55.74968 37390 ft 439 kts 335°
2026-05-06 09:23 29.32435 55.73150 37396 ft 440 kts 335°
2026-05-06 09:23 29.38306 55.71358 37420 ft 439 kts 335°
2026-05-06 09:24 29.44270 55.69528 37102 ft 442 kts 335°
2026-05-06 09:24 29.47209 55.68628 36832 ft 439 kts 335°
2026-05-06 09:24 29.50141 55.67734 36559 ft 436 kts 335°
2026-05-06 09:24 29.53068 55.66801 36426 ft 428 kts 333°
2026-05-06 09:25 29.55834 55.65646 36431 ft 422 kts 328°
2026-05-06 09:25 29.61175 55.62800 36449 ft 425 kts 324°
2026-05-06 09:26 29.66485 55.59797 36442 ft 426 kts 324°
2026-05-06 09:26 29.71766 55.56792 36435 ft 423 kts 324°
2026-05-06 09:27 29.77036 55.53772 36440 ft 424 kts 324°
2026-05-06 09:27 29.82343 55.50722 36443 ft 423 kts 324°
2026-05-06 09:28 29.87623 55.47684 36430 ft 424 kts 324°
2026-05-06 09:28 29.92871 55.44662 36438 ft 423 kts 324°
2026-05-06 09:29 29.98132 55.41626 36452 ft 422 kts 324°
2026-05-06 09:29 30.03410 55.38574 36445 ft 423 kts 324°
2026-05-06 09:30 30.08656 55.35543 36455 ft 420 kts 323°
2026-05-06 09:30 30.13963 55.32466 36454 ft 423 kts 323°
2026-05-06 09:31 30.19204 55.29433 36440 ft 419 kts 323°
2026-05-06 09:31 30.23805 55.26765 36460 ft 421 kts 323°
2026-05-06 09:32 30.29043 55.23721 36464 ft 422 kts 323°
2026-05-06 09:32 30.34293 55.20671 36446 ft 420 kts 323°
2026-05-06 09:33 30.39526 55.17624 36438 ft 421 kts 323°
2026-05-06 09:33 30.44761 55.14572 36427 ft 420 kts 323°
2026-05-06 09:34 30.50007 55.11511 36430 ft 422 kts 323°
2026-05-06 09:34 30.55275 55.08431 36411 ft 421 kts 323°
2026-05-06 09:35 30.60478 55.05390 36395 ft 421 kts 322°
2026-05-06 09:35 30.65738 55.02304 36379 ft 424 kts 322°
2026-05-06 09:36 30.70980 54.99234 36361 ft 420 kts 322°
2026-05-06 09:36 30.76230 54.96151 36339 ft 423 kts 322°
2026-05-06 09:37 30.81472 54.93058 36334 ft 421 kts 322°
2026-05-06 09:37 30.86694 54.89970 36325 ft 421 kts 322°
2026-05-06 09:38 30.91942 54.86858 36324 ft 423 kts 322°
2026-05-06 09:38 30.97163 54.83771 36311 ft 419 kts 322°
2026-05-06 09:39 31.02392 54.80660 36308 ft 425 kts 322°
2026-05-06 09:39 31.07667 54.77524 36317 ft 423 kts 322°
2026-05-06 09:40 31.12937 54.74398 36336 ft 421 kts 322°
2026-05-06 09:40 31.20814 54.69703 36348 ft 422 kts 322°
2026-05-06 09:41 31.26094 54.66551 36357 ft 425 kts 322°
2026-05-06 09:41 31.31333 54.63425 36345 ft 423 kts 322°
2026-05-06 09:42 31.36556 54.60301 36323 ft 421 kts 322°
2026-05-06 09:42 31.41784 54.57168 36308 ft 422 kts 322°
2026-05-06 09:43 31.47009 54.54034 36289 ft 425 kts 321°
2026-05-06 09:43 31.52283 54.50867 36268 ft 424 kts 322°
2026-05-06 09:44 31.57533 54.47731 36267 ft 419 kts 321°
2026-05-06 09:44 31.62758 54.44581 36266 ft 427 kts 322°
2026-05-06 09:45 31.68039 54.41409 36262 ft 424 kts 322°
2026-05-06 09:45 31.73332 54.38224 36224 ft 424 kts 322°
2026-05-06 09:46 31.78584 54.35053 36197 ft 427 kts 322°
2026-05-06 09:46 31.83932 54.31830 36189 ft 422 kts 321°
2026-05-06 09:47 31.89276 54.28839 36168 ft 432 kts 327°
2026-05-06 09:47 31.92156 54.27728 36164 ft 445 kts 333°
2026-05-06 09:47 31.95177 54.26856 36169 ft 449 kts 336°
2026-05-06 09:48 32.01337 54.25306 36137 ft 448 kts 336°
2026-05-06 09:48 32.07401 54.23792 36140 ft 448 kts 336°
2026-05-06 09:49 32.13586 54.22228 36134 ft 446 kts 336°
2026-05-06 09:49 32.19706 54.20678 36135 ft 446 kts 336°
2026-05-06 09:50 32.25817 54.19119 36150 ft 448 kts 336°
2026-05-06 09:50 32.31900 54.17567 36133 ft 443 kts 336°
2026-05-06 09:51 32.37929 54.16036 36131 ft 441 kts 336°
2026-05-06 09:51 32.43986 54.14442 36121 ft 451 kts 336°
2026-05-06 09:52 32.50093 54.12832 36124 ft 446 kts 336°
2026-05-06 09:52 32.56175 54.11223 36115 ft 448 kts 336°
2026-05-06 09:53 32.62264 54.09615 36120 ft 447 kts 336°
2026-05-06 09:53 32.68357 54.08000 36118 ft 447 kts 336°
2026-05-06 09:54 32.74473 54.06380 36123 ft 449 kts 336°
2026-05-06 09:54 32.80608 54.04745 36122 ft 451 kts 336°
2026-05-06 09:55 32.86718 54.03133 36126 ft 447 kts 336°
2026-05-06 09:55 32.92799 54.01600 36121 ft 446 kts 336°
2026-05-06 09:56 32.98933 54.00071 36124 ft 449 kts 337°
2026-05-06 09:56 33.05044 53.98550 36136 ft 448 kts 337°
2026-05-06 09:57 33.11209 53.96999 36142 ft 450 kts 337°
2026-05-06 09:57 33.17362 53.95455 36126 ft 450 kts 336°
2026-05-06 09:58 33.23532 53.93984 36126 ft 452 kts 338°
2026-05-06 09:58 33.29731 53.92677 36126 ft 453 kts 339°
2026-05-06 09:59 33.35966 53.91352 36105 ft 454 kts 339°
2026-05-06 09:59 33.42165 53.90028 36090 ft 451 kts 339°
2026-05-06 10:00 33.48328 53.88620 36048 ft 446 kts 335°
2026-05-06 10:00 33.51287 53.87472 36051 ft 435 kts 327°
2026-05-06 10:00 33.53923 53.85807 36042 ft 423 kts 316°
2026-05-06 10:01 33.56215 53.83722 36042 ft 412 kts 310°
2026-05-06 10:01 33.58373 53.81447 36041 ft 408 kts 308°
2026-05-06 10:01 33.62581 53.76852 36048 ft 413 kts 308°
2026-05-06 10:02 33.66855 53.72186 36025 ft 412 kts 308°
2026-05-06 10:02 33.70421 53.68298 36030 ft 409 kts 308°
2026-05-06 10:03 33.74678 53.63626 36029 ft 414 kts 308°
2026-05-06 10:03 33.78928 53.58973 36018 ft 410 kts 308°
2026-05-06 10:04 33.83134 53.54347 36010 ft 411 kts 308°
2026-05-06 10:04 33.87372 53.49683 36007 ft 411 kts 308°
2026-05-06 10:05 33.91570 53.45059 35994 ft 413 kts 307°
2026-05-06 10:05 33.95832 53.40360 35986 ft 411 kts 308°
2026-05-06 10:06 34.00064 53.35683 35980 ft 416 kts 308°
2026-05-06 10:06 34.04331 53.30969 35971 ft 412 kts 307°
2026-05-06 10:07 34.08577 53.26262 35966 ft 414 kts 307°
2026-05-06 10:07 34.12848 53.21524 35966 ft 413 kts 307°
2026-05-06 10:08 34.17114 53.16785 35965 ft 413 kts 307°
2026-05-06 10:08 34.21351 53.12071 35972 ft 413 kts 307°
2026-05-06 10:09 34.25584 53.07359 35960 ft 414 kts 307°
2026-05-06 10:09 34.29819 53.02629 35968 ft 414 kts 307°
2026-05-06 10:10 34.34032 52.97922 35966 ft 415 kts 307°
2026-05-06 10:10 34.38273 52.93177 35953 ft 412 kts 307°
2026-05-06 10:11 34.42502 52.88442 35989 ft 414 kts 307°
2026-05-06 10:11 34.46710 52.83717 35970 ft 412 kts 307°
2026-05-06 10:12 34.50925 52.78986 35989 ft 415 kts 307°
2026-05-06 10:12 34.55170 52.74204 36011 ft 413 kts 307°
2026-05-06 10:13 34.59355 52.69490 35996 ft 412 kts 307°
2026-05-06 10:13 34.63572 52.64730 35987 ft 413 kts 307°
2026-05-06 10:14 34.67784 52.59962 35976 ft 413 kts 307°
2026-05-06 10:14 34.71987 52.55209 35973 ft 412 kts 307°
2026-05-06 10:15 34.76201 52.50428 35963 ft 413 kts 307°
2026-05-06 10:15 34.80409 52.45653 35960 ft 413 kts 307°
2026-05-06 10:16 34.84580 52.40918 35976 ft 410 kts 306°
2026-05-06 10:16 34.88671 52.36032 35978 ft 409 kts 302°
2026-05-06 10:17 34.90479 52.33372 35850 ft 398 kts 297°
2026-05-06 10:17 34.92027 52.30595 35956 ft 393 kts 291°
2026-05-06 10:17 34.94678 52.24781 35976 ft 391 kts 289°
2026-05-06 10:18 34.97248 52.18966 35959 ft 387 kts 289°
2026-05-06 10:18 34.99905 52.13200 35975 ft 397 kts 294°
2026-05-06 10:19 35.01607 52.10503 35938 ft 409 kts 302°
2026-05-06 10:19 35.03781 52.08148 35927 ft 420 kts 312°
2026-05-06 10:19 35.08897 52.04448 36222 ft 445 kts 327°
2026-05-06 10:20 35.11906 52.03184 35858 ft 456 kts 332°
2026-05-06 10:20 35.14985 52.02140 36083 ft 454 kts 334°
2026-05-06 10:20 35.21084 52.00171 36053 ft 454 kts 333°
2026-05-06 10:21 35.27164 51.98156 36049 ft 457 kts 334°
2026-05-06 10:21 35.33284 51.96104 36049 ft 455 kts 333°
2026-05-06 10:22 35.39378 51.94035 36097 ft 453 kts 333°
2026-05-06 10:22 35.45466 51.91961 36183 ft 453 kts 333°
2026-05-06 10:23 35.51578 51.89859 36203 ft 455 kts 334°
2026-05-06 10:23 35.57622 51.87796 36256 ft 446 kts 334°
2026-05-06 10:24 35.63633 51.85715 36266 ft 455 kts 333°
2026-05-06 10:24 35.69744 51.83605 36325 ft 454 kts 334°
2026-05-06 10:25 35.75810 51.81514 36366 ft 451 kts 334°
2026-05-06 10:25 35.81867 51.79418 36340 ft 452 kts 333°
2026-05-06 10:26 35.87977 51.77292 36372 ft 455 kts 333°
2026-05-06 10:26 35.94051 51.75182 36361 ft 450 kts 333°
2026-05-06 10:27 36.00079 51.72870 36413 ft 455 kts 332°
2026-05-06 10:27 36.06160 51.70421 36414 ft 458 kts 332°
2026-05-06 10:28 36.12162 51.68045 36406 ft 449 kts 332°
2026-05-06 10:28 36.18079 51.65692 36418 ft 450 kts 332°
2026-05-06 10:29 36.24105 51.63290 36415 ft 452 kts 332°
2026-05-06 10:29 36.30112 51.60897 36389 ft 454 kts 332°
2026-05-06 10:30 36.36153 51.58500 36356 ft 453 kts 331°
2026-05-06 10:30 36.42206 51.56078 36232 ft 458 kts 332°
2026-05-06 10:31 36.48215 51.53690 36144 ft 451 kts 332°
2026-05-06 10:31 36.54234 51.51280 36082 ft 456 kts 332°
2026-05-06 10:32 36.57259 51.50066 35782 ft 455 kts 332°
2026-05-06 10:32 36.60233 51.48879 36120 ft 453 kts 332°
2026-05-06 10:32 36.63273 51.47656 35792 ft 458 kts 332°
2026-05-06 10:32 36.66301 51.46441 35961 ft 457 kts 332°
2026-05-06 10:33 36.72499 51.44255 35955 ft 466 kts 335°
2026-05-06 10:33 36.78745 51.42268 35969 ft 461 kts 335°
2026-05-06 10:34 36.84964 51.40251 35967 ft 465 kts 335°
2026-05-06 10:34 36.91208 51.38209 35946 ft 460 kts 335°
2026-05-06 10:35 36.97398 51.36167 35968 ft 463 kts 335°
2026-05-06 10:35 37.03715 51.34073 35946 ft 462 kts 335°
2026-05-06 10:36 37.09903 51.32023 35943 ft 459 kts 334°
2026-05-06 10:36 37.16140 51.29941 35944 ft 464 kts 335°
2026-05-06 10:37 37.22328 51.27882 35949 ft 459 kts 334°
2026-05-06 10:37 37.28514 51.25815 35954 ft 461 kts 334°
2026-05-06 10:38 37.34685 51.23746 35951 ft 460 kts 334°
2026-05-06 10:38 37.40909 51.21661 35957 ft 460 kts 334°
2026-05-06 10:39 37.47089 51.19585 35962 ft 461 kts 334°
2026-05-06 10:39 37.53298 51.17496 35960 ft 461 kts 334°
2026-05-06 10:40 37.59504 51.15405 35956 ft 460 kts 334°
2026-05-06 10:40 37.65659 51.13328 35960 ft 459 kts 334°
2026-05-06 10:41 37.71862 51.11232 35957 ft 460 kts 334°
2026-05-06 10:41 37.77999 51.09153 35962 ft 460 kts 334°
2026-05-06 10:42 37.84223 51.07046 35965 ft 461 kts 334°
2026-05-06 10:42 37.90397 51.04955 35965 ft 458 kts 334°
2026-05-06 10:43 37.96590 51.02850 35962 ft 460 kts 334°
2026-05-06 10:44 38.05800 50.99578 35965 ft 457 kts 333°
2026-05-06 10:44 38.11939 50.97244 35963 ft 459 kts 333°
2026-05-06 10:45 38.18049 50.94929 35966 ft 458 kts 333°
2026-05-06 10:45 38.24174 50.92614 35962 ft 460 kts 333°
2026-05-06 10:46 38.30289 50.90303 35954 ft 458 kts 333°
2026-05-06 10:46 38.36414 50.87987 35956 ft 458 kts 333°
2026-05-06 10:47 38.42523 50.85672 35953 ft 459 kts 333°
2026-05-06 10:47 38.48644 50.83350 35950 ft 459 kts 333°
2026-05-06 10:48 38.54732 50.81039 35951 ft 457 kts 333°
2026-05-06 10:48 38.60862 50.78700 35954 ft 460 kts 333°
2026-05-06 10:49 38.66952 50.76382 35544 ft 455 kts 333°
2026-05-06 10:49 38.70007 50.75217 34929 ft 459 kts 333°
2026-05-06 10:49 38.73044 50.74049 34163 ft 465 kts 333°
2026-05-06 10:49 38.76160 50.72848 33267 ft 471 kts 333°
2026-05-06 10:50 38.79281 50.71646 32378 ft 475 kts 333°
2026-05-06 10:50 38.82453 50.70431 31745 ft 472 kts 333°
2026-05-06 10:50 38.85545 50.69099 31105 ft 464 kts 329°
2026-05-06 10:50 38.88464 50.67501 30466 ft 453 kts 323°
2026-05-06 10:51 38.91202 50.65638 29847 ft 445 kts 320°
2026-05-06 10:51 38.93887 50.63654 29219 ft 439 kts 319°
2026-05-06 10:51 38.96489 50.61681 28617 ft 433 kts 319°
2026-05-06 10:51 38.99070 50.59712 28018 ft 428 kts 319°
2026-05-06 10:52 39.01600 50.57777 27431 ft 424 kts 319°
2026-05-06 10:52 39.04123 50.55845 26842 ft 419 kts 320°
2026-05-06 10:52 39.06623 50.53928 26255 ft 415 kts 320°
2026-05-06 10:52 39.09089 50.52037 25682 ft 409 kts 320°
2026-05-06 10:53 39.11492 50.50191 25107 ft 404 kts 321°
2026-05-06 10:53 39.13908 50.48336 24543 ft 398 kts 321°
2026-05-06 10:53 39.16274 50.46516 23982 ft 393 kts 321°
2026-05-06 10:53 39.18611 50.44717 23420 ft 389 kts 321°
2026-05-06 10:54 39.20943 50.42919 22843 ft 384 kts 321°
2026-05-06 10:54 39.23220 50.41164 22294 ft 380 kts 321°
2026-05-06 10:54 39.25413 50.39469 21770 ft 381 kts 321°
2026-05-06 10:54 39.27712 50.37688 21215 ft 383 kts 321°
2026-05-06 10:55 39.30013 50.35909 20657 ft 380 kts 322°
2026-05-06 10:55 39.32268 50.34169 20111 ft 375 kts 321°
2026-05-06 10:55 39.33905 50.32905 19714 ft 371 kts 321°
2026-05-06 10:55 39.36021 50.31269 19199 ft 366 kts 321°
2026-05-06 10:56 39.38205 50.29579 18671 ft 362 kts 321°
2026-05-06 10:56 39.40379 50.27892 18142 ft 359 kts 320°
2026-05-06 10:56 39.42520 50.26224 17626 ft 361 kts 320°
2026-05-06 10:56 39.44696 50.24528 17089 ft 362 kts 321°
2026-05-06 10:57 39.46842 50.22863 16557 ft 358 kts 321°
2026-05-06 10:57 39.48898 50.21267 16045 ft 354 kts 321°
2026-05-06 10:57 39.51005 50.19630 15519 ft 351 kts 321°
2026-05-06 10:57 39.53075 50.18019 15004 ft 347 kts 321°
2026-05-06 10:58 39.55144 50.16407 14485 ft 344 kts 321°
2026-05-06 10:58 39.57178 50.14822 13972 ft 341 kts 321°
2026-05-06 10:58 39.59211 50.13234 13463 ft 342 kts 322°
2026-05-06 10:58 39.61218 50.11665 12957 ft 343 kts 322°
2026-05-06 10:59 39.63253 50.10076 12440 ft 339 kts 322°
2026-05-06 10:59 39.65251 50.08517 11932 ft 336 kts 322°
2026-05-06 10:59 39.67258 50.06949 11420 ft 332 kts 322°
2026-05-06 10:59 39.69212 50.05419 10923 ft 328 kts 323°
2026-05-06 11:00 39.71145 50.03905 10465 ft 322 kts 323°
2026-05-06 11:00 39.73028 50.02434 10234 ft 309 kts 323°
2026-05-06 11:00 39.74834 50.01024 10134 ft 293 kts 323°
2026-05-06 11:00 39.76538 49.99687 9894 ft 284 kts 323°
2026-05-06 11:01 39.78229 49.98354 9502 ft 281 kts 323°
2026-05-06 11:01 39.79939 49.97136 9136 ft 281 kts 332°
2026-05-06 11:01 39.81849 49.96634 8898 ft 282 kts 357°
2026-05-06 11:01 39.83824 49.97033 8414 ft 287 kts
2026-05-06 11:02 39.85744 49.97622 8042 ft 285 kts
2026-05-06 11:02 39.87686 49.98198 7665 ft 282 kts
2026-05-06 11:02 39.89592 49.98741 7302 ft 278 kts
2026-05-06 11:02 39.91464 49.99269 7009 ft 272 kts
2026-05-06 11:03 39.93263 49.99776 6851 ft 261 kts
2026-05-06 11:03 39.95011 50.00267 6698 ft 250 kts
2026-05-06 11:03 39.96681 50.00713 6554 ft 239 kts
2026-05-06 11:03 39.98306 50.01087 6297 ft 236 kts
2026-05-06 11:04 39.99917 50.01455 6014 ft 233 kts
2026-05-06 11:04 40.01494 50.01824 5986 ft 228 kts
2026-05-06 11:04 40.03086 50.02192 5990 ft 234 kts
2026-05-06 11:04 40.04707 50.02569 5984 ft 235 kts
2026-05-06 11:05 40.06290 50.02941 5850 ft 227 kts
2026-05-06 11:05 40.07833 50.03302 5652 ft 227 kts
2026-05-06 11:05 40.09431 50.03673 5400 ft 233 kts
2026-05-06 11:05 40.11009 50.04042 5137 ft 230 kts
2026-05-06 11:06 40.12572 50.04410 4893 ft 225 kts
2026-05-06 11:06 40.14099 50.04767 4650 ft 221 kts
2026-05-06 11:06 40.15606 50.05119 4408 ft 217 kts
2026-05-06 11:06 40.17113 50.05472 4171 ft 220 kts
2026-05-06 11:07 40.18604 50.05820 3931 ft 216 kts
2026-05-06 11:07 40.20074 50.06165 3678 ft 210 kts
2026-05-06 11:07 40.21441 50.06488 3469 ft 204 kts
2026-05-06 11:07 40.22823 50.06809 3243 ft 199 kts
2026-05-06 11:08 40.24184 50.07129 3027 ft 195 kts 10°
2026-05-06 11:08 40.25078 50.07340 2900 ft 192 kts 10°
2026-05-06 11:08 40.26787 50.07742 2793 ft 183 kts
2026-05-06 11:08 40.28050 50.08039 2750 ft 185 kts
2026-05-06 11:09 40.29322 50.08339 2701 ft 187 kts
2026-05-06 11:09 40.30603 50.08585 2654 ft 182 kts
2026-05-06 11:09 40.31844 50.08316 2488 ft 180 kts 345°
2026-05-06 11:09 40.33054 50.07909 2298 ft 178 kts 349°
2026-05-06 11:10 40.34271 50.07594 2139 ft 175 kts 349°
2026-05-06 11:10 40.35442 50.07267 2010 ft 170 kts 349°
2026-05-06 11:10 40.36562 50.06945 1881 ft 155 kts 349°
2026-05-06 11:10 40.37574 50.06635 1638 ft 143 kts 348°
2026-05-06 11:11 40.38487 50.06354 1479 ft 131 kts 348°
2026-05-06 11:11 40.39374 50.06076 1298 ft 131 kts 348°
2026-05-06 11:11 40.40283 50.05795 1118 ft 135 kts 348°
2026-05-06 11:11 40.41206 50.05504 932 ft 135 kts 347°
2026-05-06 11:12 40.42106 50.05230 737 ft 131 kts 348°
2026-05-06 11:12 40.42992 50.04950 610 ft 131 kts 347°
2026-05-06 11:12 40.43898 50.04662 398 ft 134 kts 347°
2026-05-06 11:12 40.44778 50.04393 210 ft 126 kts 347°
2026-05-06 11:13 40.45622 50.04131 54 ft 125 kts 347°
2026-05-06 11:13 40.46425 50.03884 16 ft 97 kts 346°
2026-05-06 11:13 40.46901 50.03732 15 ft 48 kts 346°
2026-05-06 11:13 40.47141 50.03657 15 ft 25 kts 346°
2026-05-06 11:14 40.47323 50.03599 15 ft 27 kts 344°
2026-05-06 11:14 40.47493 50.03544 15 ft 25 kts 347°
2026-05-06 11:14 40.47653 50.03500 15 ft 17 kts
2026-05-06 11:14 40.47671 50.03628 15 ft 15 kts 127°
2026-05-06 11:15 40.47583 50.03657 15 ft 14 kts 179°
2026-05-06 11:15 40.47488 50.03693 15 ft 13 kts 159°
2026-05-06 11:15 40.47400 50.03737 15 ft 14 kts 160°
2026-05-06 11:15 40.47291 50.03790 15 ft 18 kts 159°
2026-05-06 11:16 40.47151 50.03858 15 ft 24 kts 159°
2026-05-06 11:16 40.46983 50.03941 15 ft 25 kts 159°
2026-05-06 11:16 40.46851 50.04050 15 ft 20 kts 97°
2026-05-06 11:16 40.46880 50.04233 15 ft 20 kts 76°
2026-05-06 11:17 40.46908 50.04410 15 ft 19 kts 88°
2026-05-06 11:17 40.46913 50.04586 15 ft 18 kts 88°
2026-05-06 11:17 40.46918 50.04754 15 ft 18 kts 88°
2026-05-06 11:17 40.46921 50.04915 15 ft 16 kts 88°
2026-05-06 11:18 40.46900 50.05027 15 ft 11 kts 144°
2026-05-06 11:18 40.46818 50.05044 15 ft 11 kts 180°
2026-05-06 11:18 40.46750 50.05071 15 ft 9 kts 141°
2026-05-06 11:18 40.46719 50.05102 15 ft 0 kts 143°